Regional Weather Roundup
Issued by NWS Northern Indiana

Home | Current Version | Previous Version | Text Only | Print | Product List | Glossary Off
Versions: 1 2 3 4 5 6 7 8 9 10 11 12 13 14 15 16 17 18 19 20 21 22 23 24 25 26 27 28 29 30 31 32 33 34 35 36 37 38 39 40 41 42 43 44 45 46 47 48 49 50

000
ASUS43 KIWX 222210
RWRIWX

KIWX WEATHER ROUNDUP
NATIONAL WEATHER SERVICE NORTHERN INDIANA
600 PM EDT MON SEP 22 2014

NOTE: "FAIR" INDICATES FEW OR NO CLOUDS BELOW 12,000 FEET WITH NO
SIGNIFICANT WEATHER AND/OR OBSTRUCTIONS TO VISIBILITY.

* THESE STATIONS ARE NOT UNDER NWS QUALITY CONTROL. THEY ALSO MAY NOT
  REPORT WEATHER SUCH AS PRECIPITATION OR FOG.

INZ001>027-222300-
NORTHERN INDIANA

CITY           SKY/WX    TMP DP  RH WIND       PRES   REMARKS
GARY*          SUNNY     63  45  51 NE9       30.25F
VALPARAISO     SUNNY     62  41  46 N8        30.25F
MICHIGAN CITY* SUNNY     59  45  58 NW3       30.26S
LAPORTE*       SUNNY     59  44  57 N8        30.25F
KNOX*          SUNNY     62  43  50 N6        30.23F
SOUTH BEND     SUNNY     61  46  57 NW10      30.24F
ELKHART*       SUNNY     63  43  48 N7        30.23F
GOSHEN         SUNNY    N/A N/A N/A NW8       30.22F
MONTICELLO*    SUNNY     65  46  49 N3        30.22S
LOGANSPORT*    SUNNY     63  43  48 CALM      30.24S
ROCHESTER*     SUNNY     66  45  45 NW6       30.23S
WARSAW*        SUNNY     63  45  51 NW8       30.22F
ANGOLA*        SUNNY     63  54  72 NW7       30.21S
FORT WAYNE     SUNNY     64  43  46 NW8       30.22S
HUNTINGTON*    SUNNY     63  44  51 NW5       30.22S
PERU/GRISSOM   SUNNY     64  47  52 N7        30.23S
MARION*        SUNNY     64  39  40 NW7       30.23S

$$
INZ028>050-222300-
CENTRAL INDIANA

CITY           SKY/WX    TMP DP  RH WIND       PRES   REMARKS
LAFAYETTE      SUNNY     65  43  44 N6        30.23S
KOKOMO*        SUNNY     64  43  45 N7        30.23S
MUNCIE*        SUNNY     64  40  41 NW3       30.22F
INDIANAPOLIS   SUNNY     66  41  40 NW5       30.22F

$$
MIZ043>046-050>051-056>058-064>065-071>073-077>080-222300-
SOUTHWEST LOWER MICHIGAN

CITY           SKY/WX    TMP DP  RH WIND       PRES   REMARKS
BATTLE CREEK   SUNNY     61  45  55 NW12      30.22S
BENTON HARBOR  SUNNY     57  46  66 W7        30.24F
COLDWATER*     SUNNY     64  44  47 NW6       30.21S
HILLSDALE*     SUNNY     62  42  47 NW7       30.21S
HOLLAND        SUNNY     61  47  59 W9        30.24F
GRAND RAPIDS   MOSUNNY   62  47  57 W10       30.22S
KALAMAZOO      SUNNY     61  45  55 NW10      30.23S
STURGIS*       SUNNY     63  45  51 NW7       30.21S
THREE RIVERS*  FAIR      62  46  55 NW10      30.23S

$$
OHZ001>008-015>018-024>025-222300-
NORTHWEST OHIO

CITY           SKY/WX    TMP DP  RH WIND       PRES   REMARKS
WAUSEON*       FAIR      64  41  42 N7        30.20S
DEFIANCE       SUNNY    N/A N/A N/A NW7       30.21R
FINDLAY        SUNNY     65  40  39 N6        30.19S
TOLEDO EXPRESS SUNNY     64  39  39 N7        30.20R
TOLEDO METCALF SUNNY     64  40  41 NW7       30.20S
LIMA           SUNNY     63  41  44 NW7       30.21S

$$
AND FOR LAKE MICHIGAN COASTAL AND OPEN LAKE BUOY OBSERVATIONS

STATION/POSITION TEMP    WIND        PRES    VSBY  WAVE
                 AIR SEA DIR/SP/G                  HT/PER
                 (F)     (DEG/KT/KT) (MB)    (MI)  (FT/S)
CALUMET HARBOR    59      70/  6/  9 1022.9S
MICHIGAN CITY     60     310/  4/  5   N/A
SAINT JOSEPH      61      CALM  /  3 1024.4F
SOUTH LAKE BUOY   59 62  200/  8/ 10 1023.8F         2/ 6
4 MI NW BRIDGMAN  58 65  290/  6/  8   N/A           2/ 6
MICHIGAN CITY     58 64   20/  2/  4   N/A           3/ 5
SAINT JOSEPH CG                      1024.3      6   1

$$
&&



USA.gov is the U.S. government's official web portal to all federal, state and local government web resources and services.